[[{"header":{"parameterUnit":"m.s-1","parameterCategory":2,"la1":30.2991,"la2":30.254,"lo1":-89.0895,"lo2":-89.0444,"dy":0.0017,"dx":0.0017,"nx":28,"ny":28,"refTime":"2025-08-03T09:00:00:Z","depth":"0","parameterNumber":2,"parameterNumberName":"U-component_of_CURRENTS"},"data":[0,0,0,0,0,0,0,0,0,0,0,0,0,0,0,0,0,0,0,0,0,0,0,0,0,0,0,0,0,0,0,0,0,0,0,0,0,0,0,0,0,0,0,0,0,0,0,0,0,0,0,0,0,0,0,0,0,0,0.3226,0.3226,0,0.3293,0.3293,0.3294,0.3294,0.3294,0.3293,0.3292,0.338,0.3383,0.3386,0,0,0,0,0,0,0,0,0,0,0,0,0,0.3171,0.3171,0.3226,0.3227,0.3227,0.3292,0.3293,0.3294,0.3295,0.3294,0.3292,0.3291,0.3379,0.3382,0.3386,0,0,0,0,0,0,0,0,0,0,0,0,0,0.3212,0.3171,0.3226,0.3235,0.3236,0.3292,0.3293,0.3295,0.3295,0.3294,0.3292,0.3291,0.3377,0.3382,0.3387,0.3444,0,0,0.3401,0.3403,0,0,0,0,0,0,0,0,0.321,0.3214,0.3233,0.3234,0.3236,0.3283,0.3306,0.3345,0.3295,0.3273,0.3292,0.329,0.335,0.3357,0.3373,0.3448,0.3452,0.3402,0.3405,0.3407,0.3408,0,0,0,0,0,0,0,0.3207,0.3212,0.3253,0.3234,0.3236,0.326,0.3264,0.3314,0.332,0.3275,0.3275,0.3282,0.3351,0.3369,0.3375,0.3453,0.3402,0.3406,0.3409,0.3411,0.3658,0.3661,0,0,0,0,0,0,0.3195,0.3209,0.3251,0.3255,0.3218,0.3262,0.3266,0.327,0.3319,0.3324,0.3283,0.3282,0.3361,0.337,0.3378,0.3492,0.3407,0.3411,0.3414,0.3654,0.3659,0.3663,0,0,0,0,0,0,0.3194,0.3198,0.3248,0.3233,0.3241,0.3264,0.3268,0.3272,0.329,0.3324,0.333,0.3296,0.336,0.3372,0.3446,0.3493,0.3413,0.3418,0.365,0.3656,0.3661,0.3691,0,0,0,0,0,0,0.3192,0.3197,0.3204,0.3232,0.3241,0.3298,0.327,0.3274,0.3296,0.3295,0.3338,0.3345,0.336,0.3439,0.345,0.3498,0.3422,0.3645,0.3652,0.3659,0.3685,0.3697,0.3706,0,0,0,0,0,0.3189,0.3211,0.3203,0.3209,0.3246,0.33,0.3309,0.332,0.3298,0.3326,0.3356,0.3343,0.3491,0.3445,0.3458,0.3508,0.3642,0.365,0.3658,0.368,0.3694,0.3706,0,0,0,0,0,0,0.3224,0.3214,0.3206,0.3232,0.3267,0.33,0.3327,0.3326,0.3371,0.3368,0.3384,0.3396,0.349,0.3502,0.3451,0.3607,0.3568,0.3579,0.358,0.3594,0.3604,0.3702,0.3426,0,0,0,0,0,0.3226,0.3222,0.324,0.327,0.328,0.3301,0.3323,0.3332,0.3369,0.3385,0.342,0.3469,0.3538,0.3562,0.3631,0.3701,0.378,0.3748,0.3759,0.3767,0.3861,0.4043,0.4079,0.369,0.369,0.369,0,0,0.326,0.3247,0.3255,0.3275,0.3297,0.3357,0.3312,0.3355,0.3427,0.3392,0.3499,0.3517,0.3573,0.3665,0.3706,0.3672,0.39,0.3778,0.3784,0.3876,0.4056,0.4094,0.4128,0.3696,0.3694,0.3694,0,0,0.3335,0.3304,0.3334,0.3356,0.338,0.3398,0.341,0.3449,0.3484,0.3568,0.358,0.3637,0.3715,0.378,0.3816,0.3935,0.3965,0.3932,0.4046,0.4218,0.4252,0.4284,0.4339,0.4376,0.3918,0.3918,0.3918,0,0.3385,0.3419,0.3364,0.3408,0.3461,0.3421,0.3516,0.3544,0.3612,0.3682,0.3614,0.3796,0.3793,0.396,0.3983,0.3963,0.4037,0.3972,0.4233,0.4267,0.4299,0.4349,0.439,0.3921,0.392,0.392,0.392,0,0.3489,0.3524,0.355,0.3586,0.3631,0.3701,0.3731,0.3788,0.3795,0.3838,0.3988,0.3993,0.4111,0.4087,0.4061,0.4283,0.4249,0.4232,0.4194,0.434,0.4382,0.4423,0.3924,0.3923,0.3923,0.3922,0,0,0.3599,0.3624,0.3636,0.3697,0.3738,0.3798,0.3909,0.4035,0.4125,0.4163,0.4317,0.4386,0.4374,0.4423,0.439,0.45,0.4693,0.446,0.4467,0.4505,0.5023,0.4827,0.4852,0.4728,0.4738,0.4746,0.4925,0,0.3723,0.3842,0.3824,0.3982,0.4068,0.4076,0.4181,0.4273,0.4323,0.4441,0.4478,0.4583,0.4503,0.4524,0.4646,0.4689,0.4823,0.4644,0.4892,0.4899,0.4702,0.4903,0.4597,0.4722,0.4966,0.4973,0.4978,0,0.3852,0.3913,0.4079,0.4196,0.4233,0.4304,0.4479,0.4563,0.4688,0.4726,0.4845,0.4854,0.5004,0.4896,0.5143,0.5035,0.5087,0.5104,0.5111,0.4982,0.4787,0.4641,0.4788,0.4622,0.5041,0.5036,0.5032,0,0.3992,0.4107,0.4249,0.429,0.4397,0.4483,0.454,0.4661,0.476,0.4904,0.4971,0.5149,0.5196,0.5363,0.5353,0.5296,0.5596,0.5506,0.5403,0.5382,0.5207,0.5156,0.5235,0.5796,0.5795,0.5795,0.5794,0,0.4154,0.4277,0.4305,0.439,0.4555,0.4575,0.475,0.4825,0.4935,0.5039,0.5111,0.5218,0.5334,0.546,0.5494,0.5554,0.5726,0.5515,0.5477,0.519,0.5139,0.5051,0.4993,0.5801,0.58,0.5799,0.5798,0,0.4335,0.4343,0.4509,0.4602,0.4627,0.4742,0.4847,0.4933,0.5022,0.516,0.5209,0.5337,0.5454,0.5537,0.573,0.5679,0.5597,0.5766,0.5347,0.5259,0.4947,0.49,0.4907,0.4784,0.5701,0.5698,0.5696,0,0.4477,0.4558,0.4658,0.4692,0.4731,0.4853,0.4897,0.4987,0.5042,0.5207,0.5253,0.5412,0.5458,0.5622,0.5573,0.5624,0.5517,0.538,0.5244,0.4971,0.4896,0.4738,0.4624,0.4981,0.4973,0.4966,0.4961,0,0.4722,0.4709,0.4783,0.482,0.486,0.4943,0.4989,0.505,0.5103,0.5186,0.5235,0.5294,0.5374,0.5239,0.5275,0.5274,0.5065,0.5243,0.5136,0.4528,0.4204,0.4045,0.474,0.4902,0.4908,0.4912,0.4915,0.4918,0.4846,0.49,0.487,0.4906,0.4936,0.4911,0.4909,0.4917,0.4951,0.4926,0.5091,0.5033,0.4957,0.4921,0.4905,0.4584,0.468,0.4404,0.4421,0.4327,0.4072,0.4583,0.4586,0.459,0.4593,0.4596,0.4599,0,0.4882,0.4866,0.4929,0.4878,0.4843,0.4867,0.4851,0.4755,0.4664,0.4701,0.4688,0.4495,0.4335,0.4264,0.3963,0.3782,0.3658,0.3672,0.3416,0.3391,0.3998,0.3824,0.3448,0.3448,0.3449,0.3449,0.3449,0.3449,0.4865,0.4836,0.4823,0.4718,0.4686,0.4532,0.4471,0.435,0.4302,0.4062,0.3889,0.3872,0.3777,0.3568,0.3272,0.3193,0.3004,0.2801,0.2928,0.3344,0.3413,0.3479,0.3303,0.2824,0.2824,0.2118,0.2112,0.2108]},{"header":{"parameterUnit":"m.s-1","parameterCategory":2,"la1":30.2991,"la2":30.254,"lo1":-89.0895,"lo2":-89.0444,"dy":0.0017,"dx":0.0017,"nx":28,"ny":28,"refTime":"2025-08-03T09:00:00:Z","depth":"0","parameterNumber":3,"parameterNumberName":"V-component_of_CURRENTS"},"data":[0,0,0,0,0,0,0,0,0,0,0,0,0,0,0,0,0,0,0,0,0,0,0,0,0,0,0,0,0,0,0,0,0,0,0,0,0,0,0,0,0,0,0,0,0,0,0,0,0,0,0,0,0,0,0,0,0,0,0.0251,0.0251,0,0.0184,0.0183,0.0182,0.0123,0.0122,0.0122,0.0121,-0.0003,-0.0006,-0.0009,0,0,0,0,0,0,0,0,0,0,0,0,0,0.029,0.029,0.0251,0.0251,0.025,0.0184,0.0183,0.0181,0.0123,0.0122,0.0122,0.0121,-0.0002,-0.0005,-0.0009,0,0,0,0,0,0,0,0,0,0,0,0,0,0.0251,0.029,0.0251,0.0215,0.0211,0.0184,0.0183,0.0181,0.0123,0.0122,0.0122,0.0121,-0.0001,-0.0005,-0.0009,-0.0022,0,0,-0.0023,-0.0024,0,0,0,0,0,0,0,0,0.0253,0.0249,0.0221,0.0217,0.0213,0.0163,0.0151,0.0111,0.0123,0.0154,0.0121,0.0121,0.0049,0.0041,0.0027,-0.0028,-0.0033,-0.0023,-0.0026,-0.0027,-0.0029,0,0,0,0,0,0,0,0.0256,0.0252,0.0222,0.022,0.0215,0.0188,0.0182,0.0143,0.0103,0.0151,0.0147,0.0144,0.0046,0.0031,0.0024,-0.0035,-0.0023,-0.0027,-0.0029,-0.0031,-0.0103,-0.0103,0,0,0,0,0,0,0.0272,0.0255,0.0224,0.022,0.0234,0.0188,0.0181,0.0178,0.0105,0.0094,0.0144,0.0141,0.0039,0.0029,0.0019,0.0029,-0.0027,-0.0031,-0.0034,-0.0104,-0.0103,-0.0103,0,0,0,0,0,0,0.0273,0.027,0.0227,0.0238,0.0231,0.0189,0.0185,0.0177,0.0165,0.0101,0.0088,0.0142,0.0038,0.0025,-0.0012,0.0022,-0.0033,-0.0037,-0.0105,-0.0104,-0.0103,0.003,0,0,0,0,0,0,0.0275,0.0271,0.0276,0.0239,0.0231,0.0225,0.0186,0.0176,0.0165,0.016,0.0095,0.0082,0.0037,-0.0005,-0.0016,0.0015,-0.0041,-0.0106,-0.0104,-0.0103,0.0024,0.0035,0.0044,0,0,0,0,0,0.0276,0.0293,0.0277,0.0273,0.0239,0.0226,0.022,0.0185,0.0166,0.017,0.012,0.0085,-0.0005,-0.0008,-0.0022,0.001,-0.0106,-0.0105,-0.0103,0.002,0.0033,0.0044,0,0,0,0,0,0,0.0319,0.0288,0.0269,0.0277,0.0258,0.0217,0.0219,0.0195,0.0159,0.0151,0.0087,0.0072,0.0052,0.0008,0.0006,-0.001,-0.0059,-0.006,0.0039,0.0051,0.006,0.0146,-0.0044,0,0,0,0,0,0.0331,0.033,0.0299,0.0306,0.0299,0.026,0.0251,0.0228,0.0192,0.0176,0.0131,0.0083,0.0048,0.0031,-0.0013,-0.0021,0.0013,-0.001,0.0,0.0009,0.0069,0.0198,0.0228,-0.0098,-0.0098,-0.0098,0,0,0.035,0.0333,0.0332,0.0314,0.0294,0.03,0.0253,0.0247,0.0255,0.0168,0.0162,0.0111,0.005,0.004,0.0029,0.001,0.0099,0.0011,0.002,0.0076,0.0204,0.0236,0.0265,-0.0097,-0.0097,-0.0097,0,0,0.0396,0.0372,0.0391,0.038,0.0359,0.0334,0.0338,0.0303,0.0292,0.0272,0.022,0.0212,0.013,0.0129,0.0108,0.015,0.0143,0.0108,0.0238,0.0361,0.0392,0.0419,0.0431,0.0458,0.012,0.012,0.0121,0,0.0423,0.0437,0.0397,0.0414,0.0417,0.0357,0.0386,0.0365,0.0324,0.0347,0.0284,0.0262,0.0192,0.0245,0.0242,0.0183,0.0216,0.0199,0.0384,0.0412,0.0438,0.0444,0.0473,0.0127,0.0126,0.0125,0.0125,0,0.0482,0.0494,0.0506,0.0504,0.0503,0.0514,0.0485,0.049,0.0458,0.0452,0.0488,0.0419,0.0432,0.0386,0.0314,0.0454,0.0399,0.0382,0.0372,0.048,0.0475,0.0504,0.0136,0.0134,0.0132,0.013,0,0,0.0534,0.0548,0.0551,0.0574,0.0553,0.0563,0.0589,0.0619,0.0682,0.0639,0.0749,0.0671,0.0673,0.0654,0.0591,0.0673,0.082,0.0609,0.0612,0.0653,0.1036,0.0908,0.0924,0.0854,0.0861,0.0867,0.0934,0,0.0592,0.0651,0.0643,0.0698,0.0721,0.0701,0.0744,0.0766,0.0773,0.0859,0.0849,0.0897,0.0763,0.0788,0.0858,0.0843,0.0912,0.0799,0.0899,0.09,0.0805,0.0961,0.0868,0.0917,0.0961,0.0966,0.0969,0,0.0642,0.0676,0.0746,0.081,0.0825,0.0855,0.0943,0.0977,0.1071,0.1094,0.1172,0.1165,0.1255,0.114,0.1234,0.1172,0.1131,0.1106,0.1108,0.0986,0.0831,0.0827,0.0966,0.0781,0.1012,0.1008,0.1005,0,0.0674,0.0746,0.0809,0.0822,0.0883,0.0936,0.0976,0.1056,0.1129,0.1272,0.136,0.1454,0.151,0.1542,0.1434,0.1376,0.1537,0.1449,0.1291,0.1275,0.1218,0.1187,0.1234,0.1573,0.1573,0.1573,0.1573,0,0.0713,0.0757,0.0835,0.0859,0.0971,0.0997,0.1131,0.1186,0.1326,0.1462,0.1496,0.1628,0.163,0.1682,0.1583,0.1521,0.1658,0.1373,0.1337,0.1242,0.1214,0.1063,0.095,0.1575,0.1575,0.1574,0.1574,0,0.07,0.0749,0.0828,0.0932,0.0975,0.1048,0.1196,0.1313,0.1418,0.1614,0.1679,0.1808,0.1876,0.1818,0.1851,0.1689,0.1532,0.1581,0.1403,0.1345,0.0993,0.0889,0.0935,0.0868,0.1452,0.145,0.1449,0,0.0689,0.0731,0.0868,0.0949,0.0993,0.1114,0.122,0.134,0.147,0.1712,0.1831,0.196,0.2062,0.2021,0.181,0.166,0.1493,0.1413,0.1297,0.1023,0.0883,0.082,0.0756,0.1232,0.1228,0.1226,0.1224,0,0.068,0.0736,0.0821,0.0978,0.1099,0.1232,0.1388,0.1504,0.168,0.1847,0.2067,0.2181,0.2132,0.1981,0.1736,0.1581,0.1249,0.1347,0.1183,0.084,0.067,0.0567,0.1044,0.12,0.1202,0.1204,0.1205,0.1206,0.0686,0.0754,0.0888,0.103,0.1173,0.1336,0.1451,0.1639,0.1841,0.2119,0.2213,0.2413,0.2126,0.1804,0.1558,0.1002,0.1079,0.0815,0.0741,0.0727,0.0598,0.0959,0.0994,0.0996,0.0997,0.0997,0.0998,0,0.0702,0.0799,0.0941,0.1119,0.1262,0.133,0.1562,0.1696,0.1924,0.2223,0.2412,0.2384,0.1987,0.1571,0.0833,0.0469,0.0369,0.0281,0.0197,0.0188,0.062,0.054,0.0337,0.0337,0.0337,0.0337,0.0337,0.0338,0.0728,0.0853,0.0928,0.1146,0.1274,0.1455,0.1578,0.1789,0.2022,0.2335,0.2491,0.2603,0.2218,0.097,0.0142,-0.0037,-0.0236,-0.0315,-0.0344,-0.0084,-0.0039,0.0003,-0.0094,-0.0427,-0.0428,-0.0754,-0.0758,-0.0761]}],[{"header":{"parameterUnit":"m.s-1","parameterCategory":2,"la1":30.2991,"la2":30.254,"lo1":-89.0895,"lo2":-89.0444,"dy":0.0017,"dx":0.0017,"nx":28,"ny":28,"refTime":"2025-08-03T09:00:00:Z","depth":"2","parameterNumber":2,"parameterNumberName":"U-component_of_CURRENTS"},"data":[0,0,0,0,0,0,0,0,0,0,0,0,0,0,0,0,0,0,0,0,0,0,0,0,0,0,0,0,0,0,0,0,0,0,0,0,0,0,0,0,0,0,0,0,0,0,0,0,0,0,0,0,0,0,0,0,0,0,0.2356,0.2356,0,0.2414,0.2415,0.2416,0.2438,0.2438,0.2438,0.2437,0.2456,0.2457,0.2458,0,0,0,0,0,0,0,0,0,0,0,0,0,0.227,0.2272,0.2356,0.2356,0.2357,0.2414,0.2415,0.2416,0.2438,0.2438,0.2438,0.2437,0.2456,0.2457,0.2458,0,0,0,0,0,0,0,0,0,0,0,0,0,0.2317,0.2272,0.2355,0.2374,0.2376,0.2414,0.2415,0.2416,0.2438,0.2438,0.2437,0.2437,0.2456,0.2457,0.2458,0.2474,0,0,0.2461,0.2462,0,0,0,0,0,0,0,0,0.2314,0.232,0.2371,0.2373,0.2375,0.2417,0.2392,0.2433,0.2438,0.2416,0.2437,0.2437,0.2439,0.2441,0.2456,0.2475,0.2475,0.2461,0.2462,0.2463,0.2463,0,0,0,0,0,0,0,0.2311,0.2318,0.238,0.2371,0.2374,0.2382,0.2388,0.24,0.2429,0.2418,0.2419,0.2424,0.244,0.2455,0.2456,0.2476,0.2461,0.2462,0.2463,0.2464,0.2681,0.2685,0,0,0,0,0,0,0.2302,0.2315,0.2378,0.2382,0.2342,0.2383,0.2391,0.2405,0.243,0.2434,0.2424,0.2425,0.2453,0.2455,0.2457,0.253,0.2463,0.2464,0.2464,0.2676,0.2682,0.2687,0,0,0,0,0,0,0.23,0.2307,0.2376,0.2348,0.2357,0.2385,0.2402,0.2407,0.2445,0.2435,0.2438,0.246,0.2453,0.2455,0.2507,0.2528,0.2464,0.2465,0.267,0.2677,0.2685,0.2641,0,0,0,0,0,0,0.2298,0.2307,0.2325,0.2348,0.2358,0.2411,0.2402,0.2408,0.2446,0.2448,0.2466,0.2466,0.2453,0.2506,0.2508,0.2529,0.2466,0.2663,0.2673,0.2682,0.2636,0.2646,0.2654,0,0,0,0,0,0.2294,0.2321,0.2326,0.2334,0.238,0.2411,0.2419,0.2437,0.2449,0.247,0.25,0.2467,0.257,0.251,0.2512,0.2532,0.2659,0.267,0.2681,0.2631,0.2644,0.2654,0,0,0,0,0,0,0.2296,0.2326,0.2332,0.2368,0.2392,0.2415,0.2442,0.2457,0.2499,0.2506,0.2504,0.2508,0.2548,0.2587,0.2521,0.2643,0.2621,0.2633,0.2583,0.2594,0.2603,0.2718,0.2467,0,0,0,0,0,0.2304,0.2335,0.2356,0.2388,0.2403,0.243,0.2451,0.2461,0.2493,0.2512,0.2516,0.2561,0.2598,0.2631,0.2647,0.2716,0.2777,0.2753,0.2763,0.2769,0.2877,0.2931,0.2952,0.2725,0.2725,0.2724,0,0,0.2316,0.2335,0.2355,0.2391,0.2415,0.2445,0.2443,0.2479,0.2524,0.2506,0.2564,0.2561,0.262,0.2672,0.2703,0.2708,0.2868,0.2784,0.2787,0.2895,0.2945,0.2966,0.2985,0.2732,0.2731,0.273,0,0,0.2348,0.2372,0.2405,0.243,0.2463,0.2473,0.249,0.2515,0.2552,0.2621,0.2604,0.2663,0.2715,0.276,0.2799,0.2905,0.2885,0.2885,0.3042,0.3087,0.3105,0.3122,0.3203,0.3228,0.292,0.292,0.292,0,0.2369,0.2391,0.242,0.2456,0.2468,0.2491,0.2515,0.2573,0.261,0.2679,0.2654,0.2777,0.2791,0.2899,0.2949,0.2921,0.2949,0.2956,0.3091,0.3109,0.3127,0.3207,0.3234,0.292,0.292,0.292,0.292,0,0.2409,0.2434,0.2458,0.2501,0.253,0.255,0.2608,0.2656,0.2701,0.2781,0.2889,0.2909,0.3015,0.2999,0.3024,0.3151,0.3127,0.3045,0.3034,0.3145,0.3225,0.3254,0.2919,0.2919,0.2919,0.2919,0,0,0.2443,0.2473,0.2484,0.2507,0.2541,0.2579,0.266,0.2764,0.2875,0.2942,0.3087,0.3176,0.3213,0.3272,0.324,0.3323,0.3446,0.327,0.3272,0.3309,0.3569,0.3292,0.3296,0.3333,0.3339,0.3343,0.3561,0,0.2459,0.2486,0.2509,0.2567,0.258,0.2633,0.2721,0.2843,0.2948,0.3099,0.3214,0.3342,0.3306,0.3346,0.3417,0.3397,0.3528,0.34,0.3504,0.3511,0.321,0.3323,0.3066,0.3215,0.3589,0.3594,0.3598,0,0.2476,0.2492,0.2507,0.259,0.2613,0.2674,0.2814,0.2906,0.3143,0.3246,0.3405,0.3493,0.3649,0.3591,0.3714,0.3607,0.3673,0.3678,0.3682,0.3487,0.3288,0.3179,0.3254,0.3647,0.3643,0.3639,0.3636,0,0.2444,0.2503,0.2499,0.2521,0.2621,0.2692,0.2774,0.2972,0.3094,0.3367,0.3494,0.3655,0.3748,0.3813,0.3828,0.3797,0.3931,0.3864,0.3719,0.3701,0.3554,0.3509,0.4083,0.4082,0.4082,0.4081,0.4081,0,0.2425,0.2458,0.2502,0.2527,0.2618,0.2703,0.2859,0.2991,0.3196,0.3382,0.3577,0.3683,0.3814,0.3881,0.3897,0.3841,0.3981,0.3825,0.375,0.3527,0.3479,0.3915,0.3893,0.4089,0.4087,0.4086,0.4084,0,0.2385,0.2406,0.2441,0.2542,0.2602,0.2681,0.2888,0.3027,0.3211,0.3433,0.3541,0.3757,0.3826,0.389,0.3992,0.3902,0.3891,0.3873,0.3608,0.3496,0.3657,0.3631,0.3804,0.3796,0.3789,0.3784,0.3779,0,0.2323,0.2325,0.2429,0.252,0.2584,0.272,0.2844,0.3024,0.3167,0.3429,0.3537,0.3715,0.3758,0.3738,0.3659,0.364,0.3789,0.3413,0.3332,0.3726,0.3637,0.3621,0.3604,0.3158,0.3149,0.3142,0.3136,0,0.2275,0.2324,0.2416,0.2538,0.2678,0.2763,0.2947,0.3014,0.3236,0.3362,0.3449,0.3484,0.3509,0.3311,0.3284,0.3229,0.3358,0.3252,0.3764,0.3191,0.3111,0.3023,0.3032,0.3068,0.3075,0.308,0.3083,0.3086,0.2311,0.2357,0.2515,0.2615,0.2749,0.2804,0.2818,0.2933,0.302,0.3097,0.3209,0.3127,0.3125,0.2889,0.2761,0.2701,0.2955,0.2878,0.2906,0.2942,0.2751,0.2654,0.2497,0.25,0.2503,0.2505,0.2508,0,0.2406,0.2507,0.26,0.2731,0.2765,0.2835,0.2903,0.2801,0.2742,0.2823,0.2774,0.2492,0.237,0.2395,0.2203,0.2148,0.218,0.2073,0.2154,0.2221,0.2281,0.206,0.1622,0.1619,0.1616,0.1614,0,0,0.2535,0.2657,0.2645,0.2711,0.2757,0.2703,0.2656,0.2431,0.2385,0.221,0.2152,0.2247,0.2334,0.1969,0.1896,0.1753,0.1976,0.1665,0.2382,0.2548,0.2605,0.2749,0.2481,0,0,0,0,0]},{"header":{"parameterUnit":"m.s-1","parameterCategory":2,"la1":30.2991,"la2":30.254,"lo1":-89.0895,"lo2":-89.0444,"dy":0.0017,"dx":0.0017,"nx":28,"ny":28,"refTime":"2025-08-03T09:00:00:Z","depth":"2","parameterNumber":3,"parameterNumberName":"V-component_of_CURRENTS"},"data":[0,0,0,0,0,0,0,0,0,0,0,0,0,0,0,0,0,0,0,0,0,0,0,0,0,0,0,0,0,0,0,0,0,0,0,0,0,0,0,0,0,0,0,0,0,0,0,0,0,0,0,0,0,0,0,0,0,0,0.0187,0.0186,0,0.0133,0.0132,0.0131,0.0089,0.0089,0.0089,0.0089,0.0053,0.0053,0.0052,0,0,0,0,0,0,0,0,0,0,0,0,0,0.0201,0.0201,0.0187,0.0186,0.0186,0.0133,0.0132,0.0131,0.009,0.0089,0.0089,0.0089,0.0054,0.0053,0.0052,0,0,0,0,0,0,0,0,0,0,0,0,0,0.0173,0.0201,0.0187,0.0161,0.0158,0.0133,0.0132,0.0131,0.009,0.0089,0.0089,0.0089,0.0054,0.0053,0.0052,0.0049,0,0,0.0048,0.0047,0,0,0,0,0,0,0,0,0.0175,0.0173,0.0165,0.0162,0.0159,0.012,0.0124,0.0105,0.009,0.0113,0.0089,0.0089,0.0079,0.0076,0.0062,0.0047,0.0045,0.0048,0.0047,0.0047,0.0046,0,0,0,0,0,0,0,0.0177,0.0174,0.0163,0.0165,0.0161,0.0134,0.013,0.012,0.0096,0.0111,0.0108,0.0107,0.0078,0.0063,0.0061,0.0045,0.0048,0.0047,0.0046,0.0046,0.0032,0.0033,0,0,0,0,0,0,0.0192,0.0177,0.0164,0.0161,0.017,0.0135,0.013,0.0131,0.0096,0.0091,0.0107,0.0105,0.0066,0.0063,0.006,0.0076,0.0047,0.0045,0.0045,0.0032,0.0033,0.0033,0,0,0,0,0,0,0.0193,0.0192,0.0166,0.017,0.0165,0.0135,0.0136,0.013,0.012,0.0093,0.0088,0.0104,0.0065,0.0062,0.0043,0.0074,0.0045,0.0044,0.0032,0.0032,0.0033,0.0096,0,0,0,0,0,0,0.0194,0.0192,0.0199,0.0171,0.0165,0.0163,0.0136,0.0129,0.012,0.0117,0.009,0.0085,0.0065,0.0045,0.0042,0.0072,0.0043,0.0031,0.0032,0.0033,0.0093,0.0098,0.0103,0,0,0,0,0,0.0194,0.0208,0.0199,0.0198,0.0175,0.0164,0.0158,0.0134,0.0121,0.0122,0.0091,0.0086,0.0048,0.0043,0.004,0.0071,0.0031,0.0032,0.0033,0.0091,0.0097,0.0103,0,0,0,0,0,0,0.0217,0.0204,0.0194,0.0203,0.0189,0.0158,0.0158,0.014,0.0116,0.0111,0.0082,0.0075,0.0078,0.0057,0.0053,0.0067,0.0043,0.0043,0.0089,0.0095,0.0099,0.0106,0.0042,0,0,0,0,0,0.0227,0.0231,0.0213,0.0219,0.0217,0.0188,0.0181,0.0164,0.0139,0.0128,0.0109,0.0088,0.0078,0.0071,0.006,0.0059,0.0047,0.0078,0.0083,0.0088,0.009,0.0091,0.0097,0.0036,0.0036,0.0036,0,0,0.0235,0.023,0.0231,0.0224,0.021,0.0214,0.0183,0.0177,0.0181,0.013,0.013,0.0108,0.0082,0.0084,0.0084,0.007,0.0098,0.0089,0.0093,0.0092,0.0093,0.0099,0.0104,0.0036,0.0036,0.0036,0,0,0.0258,0.0253,0.0266,0.0262,0.0251,0.0235,0.0238,0.0215,0.0207,0.0197,0.0169,0.0156,0.0137,0.0125,0.0116,0.0139,0.0127,0.0143,0.0172,0.0174,0.0179,0.0184,0.018,0.0183,0.0142,0.0142,0.0143,0,0.0271,0.0286,0.0268,0.0282,0.0288,0.025,0.0269,0.0255,0.0227,0.0235,0.0208,0.019,0.016,0.0173,0.0166,0.0154,0.0146,0.0155,0.0182,0.0186,0.0189,0.0184,0.0187,0.0146,0.0145,0.0145,0.0145,0,0.0305,0.0318,0.0327,0.0335,0.0337,0.0345,0.0331,0.0333,0.0317,0.0305,0.0314,0.0265,0.026,0.0248,0.0203,0.0224,0.0208,0.0193,0.0171,0.02,0.0192,0.0194,0.015,0.0149,0.0148,0.0147,0,0,0.0325,0.0349,0.0352,0.0373,0.0368,0.0377,0.0393,0.0405,0.0434,0.0398,0.0437,0.0384,0.0362,0.0348,0.0309,0.0285,0.0287,0.0241,0.024,0.0245,0.0289,0.0199,0.0193,0.0278,0.0279,0.028,0.0275,0,0.0357,0.0409,0.0405,0.0447,0.0474,0.046,0.0488,0.0494,0.049,0.0518,0.0476,0.0495,0.0403,0.0411,0.0369,0.031,0.0295,0.029,0.0253,0.0252,0.0175,0.0193,0.0207,0.0196,0.0277,0.0278,0.0278,0,0.0387,0.0424,0.0481,0.0529,0.0541,0.0556,0.0607,0.0629,0.065,0.0655,0.0651,0.0627,0.0589,0.0519,0.0426,0.0426,0.0363,0.0308,0.0307,0.0201,0.0166,0.0179,0.0197,0.0281,0.0281,0.0281,0.0281,0,0.0423,0.0473,0.0526,0.054,0.0588,0.0614,0.0639,0.067,0.0724,0.0753,0.0808,0.0743,0.0751,0.0641,0.0489,0.0474,0.0387,0.0367,0.0237,0.023,0.0221,0.0212,0.0331,0.0331,0.0331,0.0331,0.0331,0,0.0457,0.0497,0.0549,0.058,0.0659,0.0669,0.0752,0.0776,0.084,0.0947,0.0887,0.0955,0.0782,0.0709,0.0549,0.0378,0.0438,0.0242,0.0222,0.0241,0.0234,0.0288,0.0283,0.0331,0.0331,0.0331,0.0331,0,0.0476,0.0508,0.0578,0.0647,0.0676,0.0732,0.0833,0.0911,0.0958,0.1101,0.1132,0.1121,0.1024,0.0827,0.0658,0.0479,0.0313,0.0251,0.0267,0.0247,0.0148,0.0147,0.0122,0.0119,0.0116,0.0114,0.0112,0,0.0492,0.0533,0.0633,0.0694,0.0723,0.0811,0.0898,0.0964,0.1073,0.1219,0.1315,0.1272,0.1246,0.0918,0.0608,0.0314,0.0304,0.014,0.01,0.0143,0.0127,0.0129,0.0131,0.0129,0.0127,0.0126,0.0125,0,0.052,0.0552,0.061,0.076,0.0852,0.0975,0.1105,0.1214,0.1347,0.1472,0.1604,0.1582,0.128,0.0959,0.053,0.0333,0.0166,0.0101,0.0176,0.0154,0.0141,0.0127,0.0131,0.0113,0.0114,0.0115,0.0115,0.0116,0.053,0.0591,0.0691,0.0832,0.0953,0.1144,0.1273,0.1425,0.1619,0.1792,0.1764,0.1699,0.1336,0.0749,0.0428,0.0091,0.0106,-0.0021,-0.0012,-0.0003,-0.0027,-0.0047,-0.0114,-0.0114,-0.0115,-0.0115,-0.0115,0,0.0564,0.0649,0.0775,0.0954,0.1118,0.1177,0.1425,0.1551,0.1786,0.1856,0.1891,0.1524,0.1168,0.0781,0.0271,-0.0048,-0.0039,-0.0137,-0.0043,-0.0032,-0.0021,-0.0042,-0.0135,-0.0136,-0.0136,-0.0137,0,0,0.0587,0.0716,0.0808,0.1076,0.1209,0.1447,0.1604,0.1754,0.1836,0.1878,0.1806,0.1635,0.1197,0.0824,0.042,0.0155,0.0136,0.0095,0.0135,0.0303,0.0318,0.0057,0.0037,0,0,0,0,0]}],[{"header":{"parameterUnit":"m.s-1","parameterCategory":2,"la1":30.2991,"la2":30.254,"lo1":-89.0895,"lo2":-89.0444,"dy":0.0017,"dx":0.0017,"nx":28,"ny":28,"refTime":"2025-08-03T09:00:00:Z","depth":"4","parameterNumber":2,"parameterNumberName":"U-component_of_CURRENTS"},"data":[0,0,0,0,0,0,0,0,0,0,0,0,0,0,0,0,0,0,0,0,0,0,0,0,0,0,0,0,0,0,0,0,0,0,0,0,0,0,0,0,0,0,0,0,0,0,0,0,0,0,0,0,0,0,0,0,0,0,0.1233,0.1234,0,0.1265,0.1265,0.1264,0.1294,0.1295,0.1296,0.1297,0.1229,0.1226,0.1223,0,0,0,0,0,0,0,0,0,0,0,0,0,0.1178,0.1178,0.1233,0.1235,0.1236,0.1265,0.1265,0.1264,0.1293,0.1295,0.1296,0.1298,0.123,0.1227,0.1223,0,0,0,0,0,0,0,0,0,0,0,0,0,0.1195,0.1178,0.1233,0.1262,0.1265,0.1266,0.1265,0.1264,0.1293,0.1295,0.1297,0.1299,0.1232,0.1227,0.1223,0.1156,0,0,0.1209,0.1207,0,0,0,0,0,0,0,0,0.1194,0.1196,0.1256,0.126,0.1264,0.1287,0.1221,0.1226,0.1292,0.1271,0.1297,0.13,0.1245,0.1239,0.1227,0.1152,0.1149,0.1208,0.1206,0.1204,0.1202,0,0,0,0,0,0,0,0.1193,0.1195,0.1235,0.1258,0.1262,0.1267,0.1271,0.1222,0.1237,0.1273,0.1278,0.1298,0.1245,0.1232,0.1226,0.1148,0.1209,0.1205,0.1202,0.12,0.1176,0.1178,0,0,0,0,0,0,0.1209,0.1194,0.1235,0.1237,0.1245,0.1268,0.1271,0.1269,0.1239,0.1241,0.1296,0.1299,0.1238,0.1231,0.1224,0.1269,0.1204,0.12,0.1197,0.1174,0.1176,0.1178,0,0,0,0,0,0,0.1207,0.1211,0.1233,0.1226,0.1231,0.1268,0.1264,0.1269,0.1297,0.126,0.1257,0.1326,0.124,0.123,0.1241,0.1262,0.1197,0.1193,0.1171,0.1174,0.1177,0.1279,0,0,0,0,0,0,0.1205,0.1209,0.1226,0.1226,0.1232,0.1257,0.1264,0.1268,0.1308,0.1313,0.1283,0.1277,0.1241,0.1249,0.1237,0.1255,0.119,0.1169,0.1173,0.1176,0.1273,0.1285,0.1295,0,0,0,0,0,0.1202,0.1212,0.1225,0.1232,0.1248,0.1258,0.126,0.1286,0.1309,0.1318,0.1327,0.128,0.1265,0.1247,0.1232,0.1249,0.1167,0.1171,0.1176,0.1268,0.1282,0.1295,0,0,0,0,0,0,0.1185,0.1217,0.1231,0.1248,0.1267,0.1268,0.129,0.1306,0.1317,0.1333,0.1299,0.1293,0.1303,0.1271,0.1252,0.1259,0.121,0.1212,0.1284,0.1298,0.1309,0.1288,0.1186,0,0,0,0,0,0.1192,0.1219,0.1236,0.1254,0.1266,0.1283,0.1299,0.1315,0.1325,0.1334,0.1317,0.1309,0.1301,0.1301,0.1271,0.1272,0.1271,0.1278,0.129,0.1299,0.1276,0.1384,0.1404,0.1194,0.1194,0.1194,0,0,0.1193,0.1217,0.1232,0.1256,0.1271,0.1281,0.1295,0.1326,0.133,0.132,0.1326,0.1334,0.1309,0.1318,0.132,0.1302,0.1352,0.1305,0.1313,0.1284,0.1391,0.1412,0.143,0.1197,0.1196,0.1196,0,0,0.12,0.1225,0.1247,0.1262,0.1302,0.1308,0.1328,0.1343,0.1348,0.136,0.1367,0.1413,0.1368,0.1384,0.1379,0.1435,0.1401,0.1423,0.1467,0.1575,0.1593,0.1609,0.1604,0.1618,0.1439,0.144,0.144,0,0.1208,0.122,0.1254,0.1271,0.1283,0.1324,0.1329,0.1335,0.1355,0.1357,0.1374,0.1408,0.1398,0.1441,0.1467,0.1458,0.148,0.1419,0.1591,0.1607,0.1622,0.1613,0.1628,0.1445,0.1444,0.1444,0.1443,0,0.1215,0.1233,0.1245,0.1278,0.1294,0.1309,0.1323,0.1347,0.137,0.1372,0.1421,0.1459,0.1492,0.1506,0.1494,0.1594,0.1558,0.159,0.1558,0.165,0.1633,0.1647,0.1453,0.1451,0.1449,0.1448,0,0,0.1211,0.1244,0.1253,0.1254,0.1295,0.13,0.1322,0.1334,0.1369,0.1403,0.1446,0.1486,0.1544,0.1546,0.1586,0.1674,0.1795,0.1678,0.1682,0.167,0.1965,0.1794,0.1792,0.1883,0.1887,0.189,0.1899,0,0.1207,0.1221,0.1243,0.1252,0.1251,0.1288,0.1308,0.1332,0.1368,0.1419,0.148,0.1524,0.1548,0.1606,0.171,0.1784,0.1842,0.1783,0.1875,0.1875,0.1716,0.1807,0.1902,0.1909,0.1912,0.1915,0.1916,0,0.12,0.121,0.1208,0.1229,0.1236,0.126,0.1313,0.1334,0.1407,0.1448,0.154,0.1568,0.1689,0.1713,0.1894,0.1867,0.1904,0.195,0.1954,0.1762,0.1732,0.1807,0.1941,0.1939,0.1937,0.1935,0.1934,0,0.1152,0.1181,0.1173,0.1178,0.1217,0.1238,0.1276,0.1346,0.1384,0.1477,0.1561,0.1663,0.1777,0.1871,0.196,0.1946,0.2139,0.2138,0.1993,0.1977,0.2081,0.2064,0.2235,0.2235,0.2235,0.2235,0.2235,0,0.1106,0.1103,0.1161,0.1149,0.1173,0.1219,0.1274,0.1332,0.1451,0.1513,0.1601,0.1696,0.1841,0.1947,0.1987,0.2037,0.2176,0.1985,0.199,0.2115,0.2103,0.2088,0.207,0.2235,0.2235,0.2235,0.2235,0,0.1014,0.1059,0.1047,0.1105,0.1141,0.1152,0.1271,0.1322,0.1468,0.1578,0.1609,0.1764,0.1884,0.1978,0.2116,0.2077,0.2118,0.2084,0.2151,0.2161,0.1851,0.1839,0.1895,0.1889,0.1885,0.1881,0.1878,0,0.0938,0.0931,0.0999,0.1023,0.1048,0.1109,0.1169,0.1306,0.1361,0.1598,0.1633,0.1785,0.1863,0.1945,0.2028,0.2049,0.2033,0.1999,0.195,0.1827,0.1828,0.1823,0.1818,0.187,0.1869,0.1868,0.1867,0,0.0786,0.0837,0.0848,0.0913,0.0971,0.1023,0.1113,0.117,0.1338,0.1495,0.1619,0.1667,0.1793,0.1843,0.188,0.1896,0.1999,0.195,0.1958,0.1912,0.1799,0.1802,0.1802,0.1851,0.1853,0.1854,0.1855,0,0.0685,0.0676,0.0739,0.0791,0.0856,0.0915,0.0987,0.1086,0.1181,0.1444,0.1462,0.1656,0.178,0.1762,0.1801,0.1799,0.175,0.1674,0.1696,0.1714,0.1649,0.1478,0.1436,0,0,0,0,0,0.0566,0.0588,0.0623,0.0675,0.0733,0.0793,0.0935,0.1024,0.1209,0.1259,0.1367,0.1457,0.1532,0.1598,0.1555,0.1666,0.173,0.1599,0.1647,0.1762,0.178,0.1719,0,0,0,0,0,0,0.0507,0.0531,0.0584,0.0571,0.0596,0.0661,0.0765,0.0906,0.0936,0.1136,0.1189,0.1315,0.1404,0.1539,0.151,0.1525,0.1511,0.1688,0.1683,0.1751,0.1768,0.1783,0.1726,0,0,0,0,0]},{"header":{"parameterUnit":"m.s-1","parameterCategory":2,"la1":30.2991,"la2":30.254,"lo1":-89.0895,"lo2":-89.0444,"dy":0.0017,"dx":0.0017,"nx":28,"ny":28,"refTime":"2025-08-03T09:00:00:Z","depth":"4","parameterNumber":3,"parameterNumberName":"V-component_of_CURRENTS"},"data":[0,0,0,0,0,0,0,0,0,0,0,0,0,0,0,0,0,0,0,0,0,0,0,0,0,0,0,0,0,0,0,0,0,0,0,0,0,0,0,0,0,0,0,0,0,0,0,0,0,0,0,0,0,0,0,0,0,0,0.0152,0.0152,0,0.0131,0.0131,0.0131,0.0117,0.0117,0.0117,0.0117,0.0127,0.0127,0.0128,0,0,0,0,0,0,0,0,0,0,0,0,0,0.0149,0.0149,0.0152,0.0152,0.0152,0.0131,0.0131,0.0131,0.0117,0.0117,0.0117,0.0117,0.0127,0.0127,0.0128,0,0,0,0,0,0,0,0,0,0,0,0,0,0.0141,0.0149,0.0152,0.0143,0.0142,0.0132,0.0131,0.0131,0.0117,0.0117,0.0117,0.0117,0.0127,0.0127,0.0128,0.0132,0,0,0.0129,0.0129,0,0,0,0,0,0,0,0,0.0142,0.0141,0.0144,0.0143,0.0142,0.0127,0.0134,0.0133,0.0117,0.0126,0.0117,0.0117,0.0131,0.0131,0.0126,0.0132,0.0133,0.0129,0.013,0.013,0.013,0,0,0,0,0,0,0,0.0142,0.0142,0.0143,0.0144,0.0143,0.0129,0.0128,0.0133,0.0129,0.0125,0.0124,0.0123,0.013,0.0125,0.0126,0.0133,0.0129,0.013,0.013,0.013,0.0147,0.0147,0,0,0,0,0,0,0.0148,0.0143,0.0144,0.0143,0.0143,0.013,0.0128,0.0132,0.0128,0.0127,0.0123,0.0122,0.0124,0.0125,0.0126,0.0145,0.013,0.013,0.0131,0.0146,0.0147,0.0147,0,0,0,0,0,0,0.0148,0.0148,0.0145,0.0142,0.0141,0.013,0.0133,0.0131,0.013,0.0126,0.0126,0.0124,0.0124,0.0126,0.0125,0.0145,0.013,0.0131,0.0146,0.0147,0.0147,0.0175,0,0,0,0,0,0,0.0148,0.0149,0.0155,0.0143,0.0141,0.0142,0.0133,0.0131,0.0129,0.0128,0.0128,0.0128,0.0124,0.0124,0.0125,0.0146,0.0131,0.0146,0.0146,0.0147,0.0174,0.0176,0.0178,0,0,0,0,0,0.0148,0.0157,0.0156,0.0156,0.015,0.0143,0.0141,0.0132,0.013,0.013,0.0123,0.0128,0.0127,0.0124,0.0126,0.0147,0.0146,0.0146,0.0147,0.0173,0.0176,0.0178,0,0,0,0,0,0,0.0157,0.0156,0.0155,0.0163,0.0155,0.0141,0.0143,0.0136,0.013,0.013,0.0126,0.0126,0.0134,0.0132,0.0129,0.0151,0.014,0.014,0.0159,0.0162,0.0164,0.0154,0.0132,0,0,0,0,0,0.0164,0.017,0.0163,0.0168,0.0169,0.0157,0.0154,0.0146,0.0138,0.0136,0.0136,0.0136,0.0136,0.0141,0.014,0.0152,0.0117,0.0167,0.0169,0.0171,0.0163,0.0117,0.0114,0.0148,0.0148,0.0148,0,0,0.0168,0.0168,0.0171,0.0171,0.0166,0.0171,0.0155,0.0152,0.0154,0.0139,0.0147,0.0143,0.0139,0.0148,0.0153,0.0151,0.0143,0.0171,0.0173,0.0163,0.0117,0.0113,0.011,0.0148,0.0148,0.0148,0,0,0.0177,0.0182,0.019,0.0189,0.0186,0.018,0.0182,0.0173,0.0169,0.0171,0.0161,0.0159,0.0171,0.0164,0.0164,0.0176,0.0152,0.0189,0.0198,0.0155,0.0151,0.0147,0.0097,0.0089,0.0195,0.0195,0.0195,0,0.0182,0.0196,0.019,0.0198,0.0204,0.0188,0.0199,0.0191,0.0182,0.0181,0.0179,0.0176,0.0175,0.0176,0.018,0.0182,0.0148,0.0192,0.0156,0.0152,0.0148,0.0097,0.0088,0.0196,0.0196,0.0196,0.0196,0,0.0197,0.0211,0.0217,0.0227,0.0229,0.0236,0.0228,0.0232,0.023,0.0216,0.0214,0.02,0.02,0.0204,0.0197,0.018,0.0162,0.0161,0.0149,0.0146,0.0093,0.0083,0.0198,0.0198,0.0197,0.0197,0,0,0.0204,0.0225,0.0228,0.0251,0.0249,0.0259,0.0262,0.0262,0.0277,0.0252,0.0253,0.0243,0.0229,0.0226,0.0218,0.018,0.0125,0.0162,0.0159,0.011,0.0017,0.0029,0.0019,0.0117,0.0115,0.0114,-0.0009,0,0.0221,0.0258,0.0254,0.029,0.0315,0.0308,0.0322,0.0316,0.0309,0.0304,0.0262,0.0258,0.0239,0.0245,0.0202,0.0151,0.0099,0.0157,0.0029,0.0024,0.0034,0.0008,0.0109,-0.0017,-0.0019,-0.0021,-0.0023,0,0.024,0.0267,0.0311,0.0352,0.0362,0.038,0.0413,0.0421,0.0394,0.0383,0.0349,0.0307,0.0253,0.0235,0.012,0.0159,0.0085,0.0031,0.0025,0.0018,0.0017,-0.0014,-0.0042,-0.004,-0.0039,-0.0038,-0.0036,0,0.0275,0.0309,0.0356,0.0369,0.0406,0.0431,0.0451,0.0451,0.0475,0.0426,0.0432,0.0339,0.0316,0.0201,0.0098,0.0101,-0.0042,-0.0049,-0.012,-0.012,-0.0106,-0.0101,-0.0157,-0.0157,-0.0157,-0.0157,-0.0156,0,0.0307,0.0344,0.0386,0.0418,0.0486,0.0488,0.0555,0.0553,0.0556,0.0574,0.0483,0.0464,0.0306,0.0209,0.0093,-0.0037,-0.0048,-0.0134,-0.0154,-0.0091,-0.0083,-0.0114,-0.0108,-0.0161,-0.016,-0.0159,-0.0159,0,0.0346,0.0367,0.0432,0.0486,0.0511,0.0567,0.064,0.0683,0.0675,0.0692,0.0673,0.0555,0.0413,0.0259,0.0067,-0.0018,-0.0161,-0.0208,-0.0136,-0.0146,-0.0218,-0.0208,-0.0319,-0.032,-0.032,-0.0321,-0.0321,0,0.0375,0.0413,0.0496,0.0546,0.0578,0.0662,0.0721,0.0743,0.0766,0.0745,0.0734,0.0608,0.0509,0.0256,0.0077,-0.0161,-0.0187,-0.0264,-0.025,-0.0228,-0.0236,-0.0226,-0.0216,-0.0322,-0.0322,-0.0322,-0.0322,0,0.0432,0.0461,0.0517,0.0612,0.0687,0.0778,0.084,0.0865,0.0871,0.0873,0.0785,0.0639,0.0477,0.0248,0.0074,-0.0097,-0.0216,-0.0271,-0.0271,-0.0259,-0.0233,-0.0238,-0.0228,-0.0324,-0.0324,-0.0324,-0.0324,0,0.0477,0.0524,0.0589,0.0673,0.0768,0.0841,0.0885,0.0896,0.0921,0.087,0.083,0.0658,0.054,0.028,0.0114,-0.0046,-0.0097,-0.0145,-0.0153,-0.0153,-0.0061,-0.0001,-0.005,0,0,0,0,0,0.0508,0.0554,0.064,0.0723,0.0814,0.0865,0.0932,0.0955,0.095,0.0903,0.087,0.071,0.0453,0.0321,0.0161,0.0089,-0.0129,-0.0105,-0.0188,-0.0335,-0.0333,-0.0252,0,0,0,0,0,0,0.0527,0.0602,0.0639,0.0743,0.0803,0.0902,0.0951,0.0957,0.091,0.0879,0.0735,0.0674,0.041,0.0549,0.0159,0.0107,0.0033,-0.0228,-0.0232,-0.0336,-0.0334,-0.0332,-0.0248,0,0,0,0,0]}]]